Погода Грозный

Погода Грозный : погода сейчас, прогноз погоды и архив. Всё, что Вы хотите узнать о погоде Грозный!

Поиск расширенной информации на нашем сайте:

Другие новости

Новости СМИ2

Главная страница сайта

Новости сайта

03.07.2017

Напоминаем, что на нашем специализированном сайте Метеоцентр.Азия вы можете получить высокодетализированные автоматические прогнозы погоды по пунктам России, СНГ и мира в авиационном формате (включающие направление и скорость ветра, видимость, явления погоды, количество и форму облачности, нижнюю и верхнюю границу облачности).


Погода Грозный - сегодня

Время (UTC), дата Ветер
(°,м/с) 
Видим.   Явления Облачность Т
(°С)
Тd
(°С)
f(%) Тe
(°С)
Pmin
(гПа)
dP
(гПа)
Po
(мм)
O2
(г/м3)
Тmin Tmax R s Состояние
почвы
00 12.11.18 080 (В) 4000 м  слаб. дождь  10/10 300 м 
[Ns]
+3.2 +2.7 97 +3  1031  749  298           
03 12.11.18 080 (В) 4000 м  слаб. морось{дождь}  10/10 200 м 
[St]
+2.8 +2.3 97 +4  1031.1  0.2  749  299  +2.6       
06 12.11.18 070 (В) 4000 м  слаб. морось{дождь, туман}  10/10 200 м 
[Frnb]
+5.5 +5 97 +5  1031.6  0.5  750  295           
09 12.11.18 100 (В) 10 км  {морось}  10/10 600 м 
[Sc]
+5 +4.1 94 +4  1030.7  -0.6  749  296           
12 12.11.18 090 (В) 20000 м    10/10 600 м 
[Frnb]
+4.2 +3 92 +3  1030.2  -0.6  749  297           
15 12.11.18 080 (В) 4000 м  слаб. морось  10/10 200 м 
[St]
+3.2 +2.7 97 +2  1031.2  0.9  750  298    +5.5     
18 12.11.18 080 (В) 4000 м  дымка{морось}  10/10 300 м 
[St]
+2.8 +2.3 97 +2  1030.5  -0.9  749  298           
21 12.11.18 тихо ()   0500 м  туман  ?/?  
+2.7 +2.4 98 +3  1029.3  -1.1  748  298           
00 13.11.18 160 (Ю) 0500 м  туман  ?/?  
+2.5 +2.2 98 +3  1028.1  -1.2  747  298           
03 13.11.18 080 (В) 4000 м  в посл. час туман  10/10 300 м 
[St]
+2.1 +1.8 98 +3  1027.7  -0.3  747  298  +2       
06 13.11.18 тихо ()   4000 м  дымка{туман}  10/10 300 м 
[St]
+3.2 +2.7 97 +3  1028.2  0.5  747  297           
09 13.11.18 300 (СЗ) 4000 м  слаб. морось  10/10 300 м 
[St]
+3.3 +2.7 96 +4  1027  -1  747  297           
12 13.11.18 280 (З) 4000 м  дымка{морось}  10/10 300 м 
[St]
+3.8 +3.3 97 +5  1026.9  -0.2  746  296           
15 13.11.18 250 (З) 4000 м  слаб. морось  10/10 200 м 
[St]
+3.6 +3.1 97 +4  1027.7  0.8  747  297    +4     
18 13.11.18 230 (ЮЗ) 0500 м  слаб. морось{туман}  ?/?  
+3.5 +3.3 99 +4  1027.6  747  297           
21 13.11.18 250 (З) 0500 м  слаб. морось{туман}  ?/?  
+3.8 +3.6 99 +5  1026.8  -0.8  746  296           
00 14.11.18 270 (З) 0500 м  слаб. морось{туман}  ?/?  
+4 +3.8 99 +5  1026.1  -0.7  746  296           
03 14.11.18 230 (ЮЗ) 0500 м  слаб. морось{туман}  ?/?  
+3.9 +3.7 99 +5  1025.6  -0.4  746  296  +3.5       
06 14.11.18 260 (З) 4000 м  слаб. морось{туман}  10/10 300 м 
[St]
+4.3 +3.7 96 +5  1025.7  -0.1  746  295           
09 14.11.18 280 (З) 10 км  {морось}  10/10 600 м 
[Sc]
+5 +4.3 95 +5  1024.3  -1.1  745  294           
12 14.11.18 250 (З) 20000 м  {морось}  10/10 1000 м 
[Sc]
+5.3 +4.1 92 +6  1023.3  -1  744  293           
18 14.11.18 130 (ЮВ) 10 км  {морось}  10/10 600 м 
[Sc]
+4.9 +4.2 95 +6  1022.6  -0.1  743  294           
21 14.11.18 тихо ()   10 км    10/10 600 м 
[Sc]
+4.8 +4.1 95 +5  1021.3  -1.3  742  293           
00 15.11.18 250 (З) 4000 м  дымка  10/10 300 м 
[St]
+4.5 +4 97 +5  1019.5  -1.6  741  293           
03 15.11.18 150 (ЮВ) 4000 м  дымка  10/10 300 м 
[St]
+4.3 +3.8 97 +5  1019  -0.6  741  293  +4.2    0.3     
Время (UTC), дата Ветер
(°,м/с) 
Видим.   Явления Облачность Т
(°С)
Тd
(°С)
f(%) Тe
(°С)
Pmin
(гПа)
dP
(гПа)
Po
(мм)
O2
(г/м3)
Тmin Tmax R s Состояние
почвы

Для получения пояснительной информации подведите курсор к названию столбца.

ПОГОДА Грозный - архив

Всё, что Вы хотите узнать о погоде Грозный - удобно и подробно!

Выберите нужную дату (начиная с 1 января 2015* года) и нажмите кнопку "Найти".
Будут отображены архивные сводки погоды по пункту Грозный, начиная с указанной даты.


Отображать данные в формате CSV (для использования в таблицах Excel)


Внимание! Наш архив погоды предназначен исключительно для личного некоммерческого использования в познавательных целях. Если Вам необходимы официальные справки о состоянии погоды (для производственных, юридических, коммерческих и т.п. целей), обращайтесь в органы Росгидромета.

*Примечание: данная дата относится к архиву по метеостанциям СССР (Россия, СНГ, Балтия).
Архив по метеостанциям Зарубежной Европы и Азии (кроме Китая) хранится 10 дней, по другим регионам земного шара (Китай, Африка, Америка, Австралия, Океания) - 1 день.

Грозный - район местоположения метеостанции


Название, широта, долгота, высота метеостанции:
Грозный 43.3°ш. 45.7°д. 163 м над ур. моря [Российская Федерация]

Дополнительная информация

В oтличие oт бoльшинства пoгoдных сайтoв мы публикуем пoдрoбную метеoинфoрмацию в детальнoм прoфессиoнальнoм фoрмате.

Характеристики температуры и влажнoсти вoздуха измеряются на высoте 2 м в тени вдали oт зданий и деревьев.
Скoрoсть ветра измеряется на высoте 10 м (на урoвне рoста челoвека скoрoсть ветра ниже в 1.5-2 раза). Если метеoстанция нахoдится в гoрoде или в лесу, тo скoрoсть ветра занижена на 2-4 м/с пo сравнению с oткрытым местoм. Скoрoсть ветра над акватoриями крупных рек и oзёр, а также на вершинах хoлмoв на 2-5 м/с выше, чем в oбычных услoвиях.
Атмoсфернoе давление в разных тoчках местнoсти мoжет значительнo oтличаться oт давления на метеoстанции, в зависимoсти oт услoвий рельефа (при пoдъёме на 10 м давление пoнижается примернo на 1 мм рт.ст.).